Time,TemperatureF,DewpointF,PressureIn,WindDirection,WindDirectionDegrees,WindSpeedMPH,WindSpeedGustMPH,Humidity,HourlyPrecipIn,Conditions,Clouds,dailyrainin,SoftwareType,DateUTC
2013-11-10 00:13:00,42.0,34.0,28.99,NE,45,12.0,28.0,73,-99.99,,,-99.99,,2013-11-10 05:13:00,
2013-11-10 00:50:00,42.0,35.0,29.01,NE,55,14.0,30.0,76,-99.99,,,-99.99,,2013-11-10 05:50:00,
2013-11-10 01:22:00,42.0,35.0,29.00,ENE,60,15.0,28.0,75,-99.99,,,-99.99,,2013-11-10 06:22:00,
2013-11-10 01:42:00,42.0,35.0,29.01,NE,55,14.0,30.0,76,-99.99,,,-99.99,,2013-11-10 06:42:00,
2013-11-10 02:52:00,41.0,35.0,29.03,NE,45,15.0,27.0,79,-99.99,,,-99.99,,2013-11-10 07:52:00,
2013-11-10 03:22:00,41.0,35.0,29.04,NE,40,12.0,28.0,80,-99.99,,,-99.99,,2013-11-10 08:22:00,
2013-11-10 03:42:00,41.0,35.0,29.04,NE,50,13.0,30.0,81,-99.99,,,-99.99,,2013-11-10 08:42:00,
2013-11-10 03:52:00,40.0,34.0,29.05,ENE,60,13.0,29.0,79,-99.99,,,-99.99,,2013-11-10 08:52:00,
2013-11-10 04:22:00,40.0,34.0,29.06,NE,50,16.0,27.0,78,-99.99,,,-99.99,,2013-11-10 09:22:00,
2013-11-10 05:13:00,40.0,35.0,29.08,NE,55,11.0,29.0,82,-99.99,,,-99.99,,2013-11-10 10:13:00,
2013-11-10 06:12:00,39.0,34.0,29.12,NE,50,13.0,28.0,82,-99.99,,,-99.99,,2013-11-10 11:12:00,
2013-11-10 06:43:00,39.0,33.0,29.13,NE,40,12.0,29.0,80,-99.99,,,-99.99,,2013-11-10 11:43:00,
2013-11-10 07:42:00,38.0,33.0,29.17,NE,50,9.0,25.0,82,-99.99,,,-99.99,,2013-11-10 12:42:00,
2013-11-10 08:11:00,38.0,32.0,29.19,East,85,7.0,26.0,81,-99.99,,,-99.99,,2013-11-10 13:11:00,
2013-11-10 08:22:00,38.0,33.0,29.21,NE,55,9.0,26.0,82,-99.99,,,-99.99,,2013-11-10 13:22:00,
2013-11-10 08:42:00,38.0,33.0,29.23,East,90,11.0,25.0,82,-99.99,,,-99.99,,2013-11-10 13:42:00,
2013-11-10 09:21:00,38.0,32.0,29.26,East,80,10.0,25.0,78,-99.99,,,-99.99,,2013-11-10 14:21:00,
2013-11-10 09:42:00,38.0,32.0,29.28,East,80,10.0,24.0,78,-99.99,,,-99.99,,2013-11-10 14:42:00,
2013-11-10 10:22:00,39.0,31.0,29.30,ENE,75,11.0,24.0,73,-99.99,,,-99.99,,2013-11-10 15:22:00,
2013-11-10 10:43:00,39.0,31.0,29.31,East,90,6.0,22.0,73,-99.99,,,-99.99,,2013-11-10 15:43:00,
2013-11-10 11:42:00,38.0,33.0,29.36,NE,55,9.0,30.0,79,-99.99,,,-99.99,,2013-11-10 16:42:00,
2013-11-10 11:53:00,40.0,33.0,29.35,East,80,4.0,30.0,74,-99.99,,,-99.99,,2013-11-10 16:53:00,
2013-11-10 12:02:00,40.0,33.0,29.35,East,80,4.0,30.0,74,-99.99,,,-99.99,,2013-11-10 17:02:00,
2013-11-10 12:23:00,41.0,31.0,29.37,ENE,60,9.0,25.0,67,-99.99,,,-99.99,,2013-11-10 17:23:00,
2013-11-10 12:43:00,41.0,29.0,29.37,NE,40,8.0,24.0,62,-99.99,,,-99.99,,2013-11-10 17:43:00,
2013-11-10 13:13:00,40.0,28.0,29.38,East,85,7.0,27.0,62,-99.99,,,-99.99,,2013-11-10 18:13:00,
2013-11-10 13:24:00,40.0,29.0,29.38,East,85,5.0,22.0,66,-99.99,,,-99.99,,2013-11-10 18:24:00,
2013-11-10 13:42:00,39.0,32.0,29.38,NE,35,12.0,23.0,77,-99.99,,,-99.99,,2013-11-10 18:42:00,
2013-11-10 14:11:00,38.0,33.0,29.38,ENE,75,9.0,24.0,79,-99.99,,,-99.99,,2013-11-10 19:11:00,
2013-11-10 14:22:00,38.0,33.0,29.38,ENE,75,9.0,24.0,79,-99.99,,,-99.99,,2013-11-10 19:22:00,
2013-11-10 15:11:00,40.0,31.0,29.39,NE,45,8.0,19.0,72,-99.99,,,-99.99,,2013-11-10 20:11:00,
2013-11-10 15:22:00,40.0,31.0,29.39,NE,45,8.0,19.0,72,-99.99,,,-99.99,,2013-11-10 20:22:00,
2013-11-10 16:22:00,40.0,28.0,29.42,NE,45,6.0,17.0,62,-99.99,,,-99.99,,2013-11-10 21:22:00,
2013-11-10 17:43:00,39.0,30.0,29.43,NE,50,8.0,17.0,69,-99.99,,,-99.99,,2013-11-10 22:43:00,